Vorticity
nan nan nan nan nan nan nan nan nan nan nan nan nan nan nan nan nan nan nan nan nan nan nan nan nan nan nan nan nan nan nan nan nan
nan 5 3 4 3 4 6 6 7 9 9 8 11 12 10 8 6 6 7 5 15 14 3 5 4 5 5 5 5 5 5 5 nan
nan 2 6 5 3 5 5 5 7 7 6 6 7 8 11 11 9 7 8 4 12 11 5 6 5 5 4 6 5 5 5 5 nan
nan 9 6 6 5 5 6 6 5 6 7 9 9 8 7 11 9 8 9 8 9 8 8 7 5 4 5 6 5 4 5 4 nan
nan 12 12 3 6 7 5 6 7 7 10 9 10 12 11 9 9 10 7 10 7 12 10 6 5 5 5 5 4 5 5 5 nan
nan 5 6 12 10 9 8 5 5 8 11 11 10 12 13 8 9 7 4 13 12 12 13 6 6 6 5 4 5 5 4 5 nan
nan 8 9 13 14 17 13 11 10 12 10 6 9 9 7 9 8 3 7 15 18 15 13 12 7 6 5 5 6 5 5 5 nan
nan 10 11 9 13 15 12 12 12 8 5 6 7 6 8 9 7 4 4 10 11 22 23 12 8 6 5 5 6 6 5 5 nan
nan 7 7 6 10 8 9 9 8 7 7 5 6 7 7 8 7 4 3 7 10 10 21 21 13 7 7 7 6 6 6 6 nan
nan 7 7 7 8 8 10 8 8 9 8 6 6 6 7 7 8 4 6 9 10 10 13 11 21 21 10 9 7 8 6 5 nan
nan 8 7 8 6 7 9 8 9 8 7 7 7 6 6 6 7 7 6 6 9 9 9 10 8 11 20 24 15 6 8 6 nan
nan 7 9 8 7 8 9 10 8 8 8 8 6 6 6 6 6 8 7 5 3 6 7 7 7 10 6 5 15 17 18 12 nan
nan 8 8 8 8 8 9 9 9 9 8 8 7 7 8 7 7 7 7 7 6 4 4 6 7 7 7 7 4 5 14 22 nan
nan 6 7 9 8 8 8 8 11 8 9 8 8 7 7 8 8 7 6 7 8 6 5 8 10 11 11 10 10 8 3 13 nan
nan 8 9 8 7 5 8 8 8 9 10 10 8 8 7 8 8 7 7 7 7 8 10 10 9 10 14 14 12 14 13 9 nan
nan 11 11 7 6 7 6 6 8 8 9 8 9 10 10 9 8 9 7 7 8 8 9 9 8 6 6 9 10 12 14 14 nan
nan 6 10 9 9 11 9 7 8 11 10 5 8 8 8 13 11 8 7 8 9 10 11 9 6 6 6 5 6 7 9 11 nan
nan 7 7 10 11 11 11 11 8 7 8 10 3 8 11 7 10 10 8 8 7 8 10 9 9 7 6 8 8 4 5 7 nan
nan 10 8 8 10 10 8 7 8 8 7 10 7 7 12 7 7 10 10 9 6 7 10 10 9 8 9 8 5 4 3 4 nan
nan nan nan nan nan nan nan nan nan nan nan nan nan nan nan nan nan nan nan nan nan nan nan nan nan nan nan nan nan nan nan nan nan
CAPE
0 0 0 0 2 98 212 415 466 584 675 694 610 701 575 658 302 77 0 87 103 260 82 29 2 3 0 3 8 7 2 5 6
0 0 0 0 0 0 0 0 100 298 495 509 735 804 750 533 180 51 0 0 141 385 176 55 43 2 7 5 11 7 9 3 3
0 0 0 0 0 0 0 0 0 0 11 178 331 417 592 607 428 86 0 2 241 407 299 167 191 28 8 12 20 15 18 8 2
0 0 0 0 0 0 0 0 0 0 0 0 0 176 197 337 323 321 110 158 299 501 408 398 344 184 6 16 27 21 19 11 8
0 0 0 0 0 0 0 0 0 0 0 0 0 0 0 0 0 55 326 580 539 588 578 566 386 285 140 12 12 19 15 12 4
0 0 0 0 0 0 0 0 0 0 0 0 0 0 0 0 7 199 408 492 643 485 696 710 622 425 265 176 18 17 14 11 10
0 0 0 0 0 0 0 0 0 0 0 0 0 0 0 0 0 0 0 162 386 625 635 749 759 724 573 426 249 235 16 15 13
0 0 0 0 0 0 0 0 0 0 0 0 0 0 0 0 0 0 0 0 308 363 691 726 696 676 769 752 460 308 236 20 16
0 0 0 0 0 0 0 0 0 0 0 0 0 0 0 0 0 0 0 0 0 0 408 628 613 578 650 757 746 554 396 408 361
0 0 0 0 0 0 0 0 0 0 0 0 0 0 0 0 0 0 0 0 0 0 0 0 285 676 676 700 726 760 674 667 598
0 0 0 0 0 0 0 0 0 0 0 0 0 0 0 0 0 0 0 0 0 0 0 0 0 24 146 639 855 755 794 789 848
0 0 0 0 0 0 0 0 0 0 0 0 0 0 0 0 0 0 0 0 0 0 0 0 0 0 1 84 203 302 436 902 842
0 0 0 0 0 0 0 0 0 0 0 0 0 0 0 0 0 0 0 0 0 0 0 0 0 0 0 0 0 3 111 378 718
0 0 0 0 0 0 0 0 0 0 0 0 0 0 0 0 0 0 0 0 0 0 0 0 0 0 0 0 0 0 0 11 488
0 0 0 0 0 0 0 0 0 0 0 0 0 0 0 0 0 0 0 0 0 0 0 0 0 0 0 0 0 0 0 0 2
0 0 0 0 0 0 0 0 0 0 0 0 0 0 0 0 0 0 0 0 0 0 0 0 0 0 0 0 0 0 0 0 0
3 0 0 0 0 0 0 0 0 0 0 0 0 0 0 0 0 0 0 0 0 0 0 0 0 0 0 0 0 0 0 5 7
17 1 1 0 0 0 0 0 0 0 0 0 0 0 0 0 0 0 0 0 0 0 0 0 0 0 0 0 0 0 0 0 0
11 15 2 4 0 0 0 0 0 0 0 0 0 0 0 0 0 0 0 0 0 0 0 0 0 0 0 0 0 0 0 0 0
8 8 6 4 10 0 0 0 0 0 0 0 0 0 0 0 0 0 0 0 0 0 0 0 0 0 0 0 0 0 0 0 0